Starlink 30400

operational
NORAD ID: 57937 Int'l Des: 2023-148 Owner: SPXS Country: US Constellation: starlink
LEOCIRCULAR

关于 Starlink 30400

正在加载描述...

实时位置

正在加载3D地球...

即将过境

高度历史

Altitude vs Time

uPlot chart will show altitude changes over time

两行轨道根数

1 57937U 23148C 25258.32253005 -.00003250 00000-0 -97773-4 0 9990
2 57937 53.1596 118.7597 0001251 111.3640 248.7494 15.30163237111579
Epoch: Sep 15, 2025 • Age: 14 hours

当前状态

高度 476.9 km
速度 7.63 km/s
星下点 -1.94°S, 151.9°E
发射日期 Sep 25, 2023
运行时间 1.9 years
类型 internet

技术详情

分类 Payload
质量 730.00 kg
干质量 700.00 kg
总质量 730.00 kg
长度 0.30 m
直径 4.10 m
跨度 29.00 m
形状 Box + pan
制造商 SPXS
平台类型 Starlink V2M
阶段状态 In Orbit
所有者/国家 SPXS/US

大型星座

Loading constellations...